GW1200 Weather Reports


Display with metric or nautical units.
time (UTC)temp
F
wind
direction
speed
MPH
gust
MPH
rain 1hr
in
rain 24hr
in
rain mn
in
humidity
%
barometer
mb
20260504045808 57 214 1.0 1.0 0.00 0.00 0.00 72 4253.0
20260504044805 57 189 1.0 2.0 0.00 0.00 0.00 73 4252.9
20260504043800 57 209 0.0 0.0 0.00 0.00 0.00 72 4253.2
20260504042755 57 224 2.0 2.0 0.00 0.00 0.00 73 4252.9
20260504041753 57 229 2.0 2.0 0.00 0.00 0.00 73 4253.3
20260504040751 56 225 2.0 2.0 0.00 0.00 0.00 75 4253.3
20260504035750 56 230 1.0 1.0 0.00 0.00 0.00 75 4253.4
20260504034745 56 213 0.0 1.0 0.00 0.00 0.00 75 4253.4
20260504033745 56 211 2.0 2.0 0.00 0.00 0.00 76 4253.3
20260504032745 56 173 0.0 0.0 0.00 0.00 0.00 76 4253.3
20260504031745 56 226 2.0 2.0 0.00 0.00 0.00 76 4253.6
20260504030744 55 209 1.0 1.0 0.00 0.00 0.00 80 4253.6
20260504025744 56 193 0.0 0.0 0.00 0.00 0.00 78 4253.6
20260504024744 56 192 0.0 0.0 0.00 0.00 0.00 77 4253.7
20260504023743 57 194 0.0 0.0 0.00 0.00 0.00 76 4253.5
20260504022741 57 194 0.0 0.0 0.00 0.00 0.00 74 4253.6
20260504021740 58 195 0.0 0.0 0.00 0.00 0.00 73 4253.5
20260504020740 58 195 0.0 1.0 0.00 0.00 0.00 73 4253.4
20260504015739 59 183 0.0 0.0 0.00 0.00 0.00 70 4253.5
20260504014737 60 195 1.0 1.0 0.00 0.00 0.00 68 4253.3
20260504013737 60 204 1.0 2.0 0.00 0.00 0.00 67 4253.0
20260504012737 60 200 1.0 1.0 0.00 0.00 0.00 66 4252.8
20260504011737 61 193 0.0 0.0 0.00 0.00 0.00 63 4252.9
20260504010736 62 249 0.0 1.0 0.00 0.00 0.00 61 4252.9
20260504005735 62 264 0.0 1.0 0.00 0.00 0.00 61 4252.8
20260504004735 63 243 1.0 1.0 0.00 0.00 0.00 59 4252.8
20260504003735 64 250 0.0 1.0 0.00 0.00 0.00 59 4252.7
20260504002734 64 254 0.0 0.0 0.00 0.00 0.00 56 4252.8
20260504001729 66 265 0.0 0.0 0.00 0.00 0.00 54 4252.6
20260504000728 66 256 1.0 1.0 0.00 0.00 0.00 52 4253.0
20260503235723 67 251 0.0 0.0 0.00 0.00 0.00 49 4253.0
20260503234723 68 264 0.0 0.0 0.00 0.00 0.00 48 4253.1
20260503233724 68 257 1.0 1.0 0.00 0.00 0.00 46 4253.3
20260503232722 69 230 3.0 3.0 0.00 0.00 0.00 44 4253.3
20260503231718 69 253 2.0 2.0 0.00 0.00 0.00 45 4253.3
20260503230716 70 271 1.0 1.0 0.00 0.00 0.00 44 4253.3
20260503225711 70 337 1.0 2.0 0.00 0.00 0.00 44 4253.4
20260503224709 70 275 2.0 2.0 0.00 0.00 0.00 42 4253.5
20260503223704 71 246 1.0 1.0 0.00 0.00 0.00 40 4253.6
20260503222703 72 315 1.0 1.0 0.00 0.00 0.00 41 4253.6
20260503221659 71 288 3.0 3.0 0.00 0.00 0.00 44 4253.7
20260503220659 72 347 0.0 0.0 0.00 0.00 0.00 39 4253.9
20260503215658 72 276 3.0 3.0 0.00 0.00 0.00 40 4253.8
20260503214654 69 5 1.0 1.0 0.00 0.00 0.00 42 4254.1
20260503213649 71 305 2.0 2.0 0.00 0.00 0.00 43 4254.1
20260503212648 71 21 1.0 2.0 0.00 0.00 0.00 43 4254.1
20260503211643 69 315 2.0 2.0 0.00 0.00 0.00 42 4254.1
20260503210641 70 336 3.0 5.0 0.00 0.00 0.00 43 4254.4
20260503205639 73 203 2.0 3.0 0.00 0.00 0.00 39 4254.4
20260503204637 71 342 0.0 1.0 0.00 0.00 0.00 45 4254.7
20260503203637 69 305 4.0 6.0 0.00 0.00 0.00 46 4254.7
20260503202632 70 5 7.0 8.0 0.00 0.00 0.00 41 4254.8
20260503201628 71 359 2.0 2.0 0.00 0.00 0.00 43 4255.1
20260503200627 70 332 2.0 2.0 0.00 0.00 0.00 43 4255.3
20260503195627 71 8 4.0 5.0 0.00 0.00 0.00 41 4255.6
20260503194626 72 235 2.0 5.0 0.00 0.00 0.00 40 4255.8
20260503193624 69 9 3.0 5.0 0.00 0.00 0.00 43 4255.9
20260503192622 68 354 2.0 2.0 0.00 0.00 0.00 40 4256.2
20260503191620 67 45 4.0 5.0 0.00 0.00 0.00 45 4256.4
20260503190620 66 16 3.0 5.0 0.00 0.00 0.00 45 4256.5
20260503185620 67 33 7.0 8.0 0.00 0.00 0.00 46 4256.7
20260503184615 66 9 6.0 8.0 0.00 0.00 0.00 45 4256.9
20260503183614 66 3 3.0 5.0 0.00 0.00 0.00 44 4257.0
20260503182610 66 14 2.0 3.0 0.00 0.00 0.00 45 4257.1
20260503181610 66 45 2.0 3.0 0.00 0.00 0.00 47 4257.2
20260503180610 65 18 3.0 3.0 0.00 0.00 0.00 45 4257.3
20260503175610 65 10 3.0 3.0 0.00 0.00 0.00 45 4257.2
20260503174610 65 22 3.0 3.0 0.00 0.00 0.00 47 4257.7
20260503173608 64 32 3.0 3.0 0.00 0.00 0.00 48 4257.8
20260503172608 64 8 5.0 6.0 0.00 0.00 0.00 44 4257.8
20260503171608 64 1 5.0 6.0 0.00 0.00 0.00 42 4258.2
20260503170608 63 43 3.0 6.0 0.00 0.00 0.00 45 4258.2
20260503150548 59 21 3.0 3.0 0.00 0.00 0.00 69 4259.0
20260503130533 53 52 1.0 1.0 0.00 0.00 0.00 92 4258.8
20260503110504 42 225 2.0 2.0 0.00 0.00 0.00 99 4257.6
20260503090431 46 229 1.0 1.0 0.00 0.00 0.00 95 4256.9
20260503081422 50 22 2.0 2.0 0.00 0.00 0.00 91 4256.5
20260503080421 50 31 1.0 1.0 0.00 0.00 0.00 91 4256.6